Location: Chateh
(58.6667°N, 118.6000°W)
Time: 14:05:12
(UTC+00:00)

XW-2F - Visible Passes

Search period start: 01 December 2023 00:00
Search period end: 11 December 2023 00:00
Orbit: 400 x 406 km, 97.4° (Epoch: 01 December)

Date Brightness Start Highest point End Pass type
(mag) Time Alt. Az. Time Alt. Az. Time Alt. Az.
01 Dec ? 00:35:39 16° ENE 00:35:56 16° NE 00:37:56 10° NNE visible
01 Dec ? 02:08:22 40° NNW 02:08:22 40° NNW 02:10:33 10° NNW visible
01 Dec ? 14:42:21 10° NE 14:45:04 26° E 14:47:46 10° SSE visible
02 Dec ? 01:18:57 30° NE 01:18:57 30° NE 01:21:07 10° N visible
02 Dec ? 02:51:38 17° NW 02:51:38 17° NW 02:52:46 10° NW visible
02 Dec ? 15:24:31 10° NNE 15:27:41 74° ESE 15:30:49 10° S visible
03 Dec ? 00:29:20 14° NE 00:29:20 14° NE 00:30:50 10° NNE visible
03 Dec ? 02:02:02 28° NNW 02:02:02 28° NNW 02:03:41 10° NNW visible
03 Dec ? 14:35:26 10° NE 14:37:58 22° E 14:40:29 10° SSE visible
04 Dec ? 01:12:15 22° NNE 01:12:15 22° NNE 01:13:51 10° N visible
04 Dec ? 02:44:55 15° NW 02:44:55 15° NW 02:45:39 10° NW visible
04 Dec ? 15:17:11 10° NNE 15:20:18 60° ESE 15:23:23 10° S visible
05 Dec ? 00:22:17 12° NE 00:22:17 12° NE 00:23:01 10° NNE visible
05 Dec ? 01:54:57 21° NNW 01:54:57 21° NNW 01:56:09 10° NNW visible
05 Dec ? 14:27:56 10° NE 14:30:14 18° E 14:32:31 10° SE visible
06 Dec ? 01:04:50 17° NNE 01:04:50 17° NNE 01:05:56 10° N visible
06 Dec ? 02:37:28 13° NNW 02:37:28 13° NNW 02:37:54 10° NNW visible
06 Dec ? 15:09:13 10° NNE 15:12:17 48° ESE 15:15:18 10° S visible
07 Dec ? 01:47:10 17° N 01:47:10 17° N 01:47:59 10° N visible
07 Dec ? 14:19:53 10° NE 14:21:51 15° E 14:23:48 10° SE visible
08 Dec ? 00:56:41 14° NNE 00:56:41 14° NNE 00:57:21 10° N visible
08 Dec ? 02:29:19 11° NNW 02:29:19 11° NNW 02:29:30 10° NNW visible
08 Dec ? 15:00:39 10° NNE 15:03:37 38° E 15:06:34 10° S visible
09 Dec ? 01:38:40 14° N 01:38:40 14° N 01:39:10 10° N visible
09 Dec ? 14:11:22 10° ENE 14:12:50 13° E 14:14:17 10° ESE visible
10 Dec ? 00:47:51 11° NNE 00:47:51 11° NNE 00:48:06 10° NNE visible
10 Dec ? 14:51:31 10° NNE 14:54:19 30° E 14:57:08 10° SSE visible
